Location: Boissi�res
(45.2500°N, 2.3667°E)
Time: 18:37:09
(UTC+00:00)

SAR-Lupe-1 - Pass Details

Date: 03 March 2021
Orbit: 482 x 483 km, 98.2° (Epoch: 30 March)

Event Time Altitude Azimuth Distance (km) Brightness Sun altitude
Rises 18:25:09 0° 19° (NNE) 2,558 7.5 -8.6°
Reaches altitude 10° 18:27:17 10° 25° (NNE) 1,673 6.5 -9.0°
Maximum altitude 18:30:45 46° 100° (E) 660 4.3 -9.6°
Drops below altitude 10° 18:34:11 10° 175° (S) 1,658 6.7 -10.2°
Sets 18:36:18 0° 181° (S) 2,533 7.7 -10.6°
